OneWeb SL0018

operational
NORAD ID: 45434 Int'l Des: 2020-020 Owner: ONEWEB Country: UK Constellation: oneweb
LEOCIRCULARPOLARONEWEB_TYPE

Über OneWeb SL0018

Beschreibung wird geladen...

Live-Position

3D-Globus wird geladen...

Nächste Überflüge

Höhenverlauf

Altitude vs Time

uPlot chart will show altitude changes over time

Zweizeiliger Elementsatz

1 45434U 20020L 26034.46966497 .00000317 00000-0 85777-3 0 9998
2 45434 87.8824 47.6728 0001688 89.7338 270.3983 13.11419503285100
Epoch: 3. Feb. 2026 • Age: 18 hours

Aktueller Status

Höhe 1243.6 km
Geschwindigkeit 7.23 km/s
Subsatellitenpunkt -64.62°S, 22.67°E
Startdatum 21. März 2020
Alter 5.8 years
Typ internet

Technische Details

Klassifizierung Payload
Masse 148.00 kg
Trockenmasse 140.00 kg
Gesamtmasse 148.00 kg
Länge 1.30 m
Durchmesser 1.00 m
Spannweite 5.00 m
Form Trapezoid+2 pan
Hersteller ONEWUS
Bus-Typ ARROW
Phasenstatus In Orbit
Besitzer/Staat ONEWEB/UK

Große Konstellationen

Loading constellations...